星链-37269(STARLINK-37269)

导读

STARLINK-37269(NORAD编号68621)是SpaceX星链(Starlink)低轨互联网星座的一颗组网卫星,属于星链全球互联网星座计划的组成部分。星链计划于2015年启动,目标在近地轨道部署4.2万颗卫星,提供覆盖全球的高速互联网接入服务,填补偏远区域网络覆盖空白。该卫星运行于300-550公里的近地轨道,采用Ku/Ka频段提供通信服务,支持低时延高速联网,可满足偏远地区、海上和航空等场景的互联网需求,截至2026年仍在轨道正常工作,支撑星链星座的全球服务能力。

Basic Information
目录编号:
68621
目录名称:
STARLINK-37269
国际标识:
2026-073V
轨道中心:
EARTH
卫星名称:
星链-37269
卫星全名:
星链-37269(STARLINK-37269)
卫星状态:
在轨 (已飞行160 天)
发射日期:
2026-04-05 UTC
国别 :
美国 (US)
星等 :
--
This satellite is enrolled in the Space Conjunction Data Service (SCDS) and the current flight risk assessment level is: No High Risk
Orbit Information
数据来源 国际轨道数据
星历时间: 2026-09-12T07:33:44+0800
12小时前
查看轨道信息
半长轴: 6843.66km
偏心率: 0.0001287
轨道倾角: 97.283°
近地点辐角 104.013°
升交点赤经 93.091°
平近点角 256.126°
近地点: 464.642km
远地点: 466.404km
周期: 93.906分钟
每日圈数: 15.334521
Detailed Information
固有亮度:
5
最大亮度:
2.5
卫星平台:
Starlink V1.0
覆盖范围:
全球
运营商:
太空探索技术公司
运营商所在国:
美国
制造商(研发单位):
太空探索技术公司
制造商所在国:
美国
使用方式:
暂无
Satellite Introduction
Starlink 计划是 SpaceX 推出的全球卫星互联网项目,通过发射低轨道卫星,为全球尤其是偏远地区提供高速、低延迟的互联网服务。自 2019 年起,Starlink 已部署数千颗卫星,旨在缩小全球数字鸿沟,推动互联网普及。该项目还为军事、航空等行业提供通信支持,带来广泛经济效益。
2D Orbit Map
3D Orbit Map
Orbit Altitude Analysis Chart
Orbit Inclination Analysis Chart
Orbit Comprehensive Analysis Chart
View Comprehensive Chart
Conjunction Data List
Event ID Objects TCA Miss Dist (km) Collision Risk Probability Collision Risk Index (CRI) Action
CDM_260912-040106-492606-862121
2026-09-12T
04:01:36+0000
2.587 km
极远距离
1.476523E-6 低风险 0.38
CDM_260913-075105-230206-862123
2026-09-13T
07:51:28+0000
2.961 km
极远距离
1.319811E-6 低风险 0.37
CDM_260914-022506-304706-862121
2026-09-14T
02:25:17+0000
2.621 km
极远距离
9.441053E-7 极低风险 0.35
Miss Distance Evolution Trend with All Objects
Collision Probability Evolution Trend with All Objects